Location: Forst
(46.9333°N, 15.4333°E)
Time: 15:32:44
(UTC+00:00)

Envisat - Pass Details

Date: 28 September 2021
Orbit: 764 x 766 km, 98.2° (Epoch: 19 October)

Event Time Altitude Azimuth Distance (km) Brightness Sun altitude
Rises 03:44:34 0° 18° (NNE) 3,242 6.7 -12.5°
Reaches altitude 10° 03:46:59 10° 25° (NNE) 2,311 6.0 -12.1°
Maximum altitude 03:51:53 47° 99° (E) 1,012 4.2 -11.2°
Drops below altitude 10° 03:56:45 10° 172° (S) 2,294 5.5 -10.4°
Sets 03:59:07 0° 179° (S) 3,215 6.2 -10.0°
